Regional Weather Roundup
Issued by NWS

Home | Current Version | Previous Version | Graphics & Text | Print | Product List | Glossary On
Versions: 1 2 3 4 5 6 7 8 9 10 11 12 13 14 15 16 17 18 19 20 21 22 23 24 25 26 27 28 29 30 31 32 33 34 35 36 37 38 39 40 41 42 43 44 45 46 47 48 49 50
675
ASUS43 KMPX 200410
RWRMN
WEATHER ROUNDUP FOR MINNESOTA
NATIONAL WEATHER SERVICE TWIN CITIES/CHANHASSEN MN
1000 PM CST MON FEB 19 2018


NOTE: "FAIR" INDICATES FEW OR NO CLOUDS BELOW 12,000 FEET WITH NO
SIGNIFICANT WEATHER AND/OR OBSTRUCTIONS TO VISIBILITY. N/A MEANS
CURRENT SKY AND/OR WEATHER CONDITIONS ARE NOT AVAILABLE.

MNZ060>063-068>070-200500-
   Twin Cities Metro

CITY           SKY/WX    TMP DP  RH WIND       PRES   REMARKS
TWIN CITIES    FRZ DRZL  20  19  96 NE14      29.90R FOG     WCI   7
ST PAUL        CLOUDY    21  18  88 NE9       29.93R FOG     WCI  11
CRYSTAL        CLOUDY    18  15  88 N9        29.91R FOG     WCI   7
BLAINE         CLOUDY    19  18  93 NE10      29.91S WCI   8
LAKEVILLE      CLOUDY    19  19 100 NE10G18   29.88S FOG     WCI   8
EDEN PRAIRIE   CLOUDY    19  16  88 N14G20    29.88S FOG     WCI   6
SOUTH ST PAUL  CLOUDY    22  19  91 NE10      29.90S WCI  11
LAKE ELMO      CLOUDY    21  19  93 NE7       29.91R FOG     WCI  13
$$
MNZ001>005-007-008-013>017-022>024-027-028-200500-
   Northwest Minnesota

CITY           SKY/WX    TMP DP  RH WIND       PRES   REMARKS
BEMIDJI        LGT SNOW   8   2  79 N8        30.08R WCI  -5
HALLOCK        MOCLDY     5  -8  56 N10       30.21F WCI -10
WARROAD        FAIR       7  -4  61 NE6       30.20R WCI  -3
THIEF RVR FALL CLOUDY   N/A N/A N/A N14       30.14F
CROOKSTON      FLURRIES   7   0  72 N14       30.16F WCI -10
FOSSTON        LGT SNOW   3  -2  78 N15       30.08F WCI -15
DETROIT LAKES  FLURRIES  10   7  85 NE12      30.01F WCI  -4
MOORHEAD       LGT SNOW   5   0  78 N22G28    30.08F WCI -16
PARK RAPIDS    LGT SNOW   9   3  77 NE13G20   30.00F WCI  -7
MAHNOMEN       FLURRIES   8   2  78 NE16      30.06F WCI -10
$$
MNZ006-009>011-018-025>026-200500-
   North Central Minnesota

CITY           SKY/WX    TMP DP  RH WIND       PRES   REMARKS
BAUDETTE       CLOUDY     7  -4  60 N9        30.16S WCI  -7
FLAG ISLAND    CLOUDY     7  -8  51 NE7       30.19F WCI  -5
INTL FALLS     CLOUDY     8  -2  63 NE10      30.14F WCI  -6
WASKISH        CLOUDY     9   0  66 NE6       30.12S WCI  -1
BIG FORK       LGT SNOW   9   3  78 N6        30.07F WCI  -1
LONGVILLE      CLOUDY     9   3  78 NE7       30.03S WCI  -3
GRAND RAPIDS   FLURRIES   9   4  80 NE8       30.05F WCI  -3
CRANE LAKE     LGT SNOW   7   1  78 NE5       30.16S VSB 1   WCI  -2
ORR            LGT SNOW   7   1  78 NE5       30.06F WCI  -2
COOK           LGT SNOW   7   3  85 NE6       30.08S WCI  -3
WALKER         LGT SNOW   8   3  80 N9        30.05S WCI  -5
$$
MNZ012-019>021-037-200500-
   Northeast Minnesota

CITY           SKY/WX    TMP DP  RH WIND       PRES   REMARKS
DULUTH         LGT SNOW  13   7  77 NE16G26   29.97F WCI  -3
ELY            LGT SNOW   5   1  85 NE7       30.06F WCI  -7
HIBBING        FLURRIES   7   2  80 NE9       30.04F WCI  -7
EVELETH        FLURRIES N/A N/A N/A NE8       30.05F
DULUTH HARBOR    N/A     18  16  93 NE24G33   30.04F WCI   0
TWO HARBORS    FLURRIES  16   9  73 NE12G18   30.00F WCI   3
GRAND MARAIS     N/A     11   1  64 NE9       30.15F WCI  -2
G MARAIS ARPRT FLURRIES   3  -4  72 N12       30.03F WCI -13
$$
MNZ029>031-032-039>041-046>048-054>057-064-200500-
   West Central Minnesota

CITY           SKY/WX    TMP DP  RH WIND       PRES   REMARKS
FERGUS FALLS   CLOUDY    10   7  85 NE10G18   29.99F WCI  -3
WHEATON        LGT SNOW   9   5  85 N13G18    30.02F WCI  -7
MORRIS         LGT SNOW  12   9  85 NE16      29.94F WCI  -4
ALEXANDRIA     CLOUDY    12   7  80 NE15      29.94F WCI  -4
ELBOW LAKE     FLURRIES  11   8  87 E10       29.98F WCI  -2
WADENA         FLURRIES   9   7  92 NE12      29.97F WCI  -6
GLENWOOD       FLURRIES  12   9  85 NE18G24   29.92F WCI  -5
APPLETON       CLOUDY    16   9  73 NE17      29.94F WCI   0
BENSON         FLURRIES  14   9  79 E10G18    29.94F WCI   1
ORTONVILLE     LGT SNOW  10   7  85 N15       29.97S WCI  -6
MADISON        FLURRIES  16  10  79 N12       29.96F WCI   3
WILLMAR        CLOUDY    14  10  85 NE14G20   29.93F WCI  -1
$$
MNZ033>034-036-042>043-049>051-058-059-200500-
   Central Minnesota

CITY           SKY/WX    TMP DP  RH WIND       PRES   REMARKS
ST CLOUD       CLOUDY    14  10  84 N8        29.95R WCI   3
SAUK CENTRE    CLOUDY    12   7  79 NE16      29.95F WCI  -4
PAYNESVILLE    FLURRIES  14  11  88 NE12G17   29.93F WCI   0
AITKIN         CLOUDY    10   3  72 NE9G17    29.99S WCI  -2
PINE RIVER     CLOUDY     9   5  85 N9G16     30.04S WCI  -5
BRAINERD       CLOUDY    13   3  64 NE14      30.00S WCI  -2
STAPLES        FLURRIES  10   7  85 NE8       29.98F WCI  -1
LONG PRAIRIE   CLOUDY    12   7  79 N10G18    29.96F WCI  -1
LITTLE FALLS   FLURRIES  14   3  62 NE5       29.98S WCI   6
LITCHFIELD     CLOUDY    16  14  93 N12G17    29.92F WCI   3
BUFFALO        CLOUDY    18  14  83 N14G22    29.93F WCI   4
MAPLE LAKE     CLOUDY    19  15  82 NE10G17   29.93F WCI   7
HUTCHINSON     CLOUDY    19  15  86 N16G23    29.90F WCI   4
$$
MNZ037-044-045-052-053-200500-
   East Central Minnesota

CITY           SKY/WX    TMP DP  RH WIND       PRES   REMARKS
PRINCETON      CLOUDY    19  12  73 NE7       29.94S WCI  10
MORA           FLURRIES  18  12  79 N3        29.97S
CAMBRIDGE      CLOUDY    19  10  68 NE9G17    29.95S WCI   9
RUSH CITY      CLOUDY    18  13  80 NE9G20    29.95S WCI   7
MOOSE LAKE     LGT SNOW  14   9  79 NE8       29.97S WCI   3
HINCKLEY       CLOUDY    19  14  79 NE12G18   29.96S WCI   7
CLOQUET        FLURRIES  12   7  79 NE12G21   29.97F WCI  -2
MCGREGOR       CLOUDY    12   9  85 NE10G18   29.99F WCI  -1
$$
MNZ071>073-080-081-089-090-097-098-200500-
   Southwest Minnesota

CITY           SKY/WX    TMP DP  RH WIND       PRES   REMARKS
MONTEVIDEO     FLURRIES  14  10  85 E9G17     29.94F WCI   2
GRANITE FALLS  CLOUDY    17  13  86 N16       29.93F WCI   1
CANBY          FLURRIES  14  11  89 N10       29.95F WCI   1
MARSHALL       FLURRIES  13  11  92 N14       29.91F WCI  -2
REDWOOD FALLS  CLOUDY    15  14  95 N12G20    29.91F WCI   2
OLIVIA         CLOUDY    18  14  86 NE15      29.90F WCI   3
PIPESTONE      FLURRIES  12   9  85 NE17G23   29.84F WCI  -5
WINDOM         CLOUDY    16   3  57 N13       29.85F HAZE    WCI   2
WORTHINGTON    FLURRIES  15  13  91 N20G25    29.84F WCI  -2
JACKSON        CLOUDY    18  16  93 N13       29.86S FOG     WCI   4
TRACY          CLOUDY    16  14  95 N8        29.90R FOG     WCI   5
SLAYTON        LGT SNOW  14  12  93 N15       29.87R WCI  -2
$$
MNZ065>067-074>077-082>085-091>093-200500-
   South Central Minnesota

CITY           SKY/WX    TMP DP  RH WIND       PRES   REMARKS
MANKATO        MIX PCPN  20  18  92 N13       29.88R FOG     WCI   7
NEW ULM        CLOUDY    18  14  86 NE13G20   29.90R WCI   4
ST JAMES       CLOUDY    18  18 100 N9        29.87F WCI   6
FAIRMONT       CLOUDY    19  18  95 N16       29.85S FOG     WCI   4
GLENCOE        CLOUDY    19  17  91 N10G16    29.89F WCI   7
FARIBAULT      CLOUDY    21  19  93 N8        29.86S FOG     WCI  12
OWATONNA       CLOUDY    23  21  93 N6        29.83R FOG     WCI  16
WASECA         CLOUDY    23  21  93 N7        29.86R FOG     WCI  15
ALBERT LEA     CLOUDY    25  21  86 NE7       29.81R FOG     WCI  17
$$
MNZ078>079-086>088-094>096-200500-
   Southeast Minnesota

CITY           SKY/WX    TMP DP  RH WIND       PRES   REMARKS
ROCHESTER      LGT SNOW  24  23  96 N13       29.79S FOG     WCI  12
RED WING       MIX PCPN  23  19  86 NE6       29.87R WCI  16
STANTON        CLOUDY    22  20  92 NE12      29.85S FOG     WCI  11
DODGE CENTER   CLOUDY    21  21 100 N10       29.80S FOG     WCI  10
WINONA         CLOUDY    30  30 100 CALM      29.81S
AUSTIN         CLOUDY    25  21  86 NE7       29.80R FOG     WCI  17
PRESTON        CLOUDY    28  26  96 N8        29.77F FOG     WCI  19
$$
ABBREVIATIONS USED IN REMARKS
   TC - TEMPERATURES IN CELSIUS
  WCI - WIND CHILL INDEX
   HX - HEAT INDEX
  VSB - VISIBILITY
$$




USA.gov is the U.S. government's official web portal to all federal, state and local government web resources and services.